| time (UTC) | temp F | wind direction | speed MPH | gust MPH | rain 1hr in | rain 24hr in | rain mn in | humidity % | barometer mb |
| 20260504021034 | 50 | 284 | 0.0 | 0.0 | 0.00 | 0.00 | 0.00 | 56 | 1016.6 |
| 20260504020531 | 50 | 284 | 1.0 | 1.0 | 0.00 | 0.00 | 0.00 | 56 | 1016.4 |
| 20260504020028 | 51 | 284 | 0.0 | 0.0 | 0.00 | 0.00 | 0.00 | 56 | 1016.3 |
| 20260504015524 | 51 | 284 | 0.0 | 0.0 | 0.00 | 0.00 | 0.00 | 54 | 1016.4 |
| 20260504015020 | 51 | 284 | 0.0 | 0.0 | 0.00 | 0.00 | 0.00 | 53 | 1016.6 |
| 20260504014516 | 51 | 284 | 0.0 | 0.0 | 0.00 | 0.00 | 0.00 | 52 | 1016.5 |
| 20260504014014 | 51 | 284 | 0.0 | 0.0 | 0.00 | 0.00 | 0.00 | 53 | 1016.6 |
| 20260504013512 | 51 | 284 | 0.0 | 0.0 | 0.00 | 0.00 | 0.00 | 53 | 1016.5 |
| 20260504013009 | 52 | 284 | 0.0 | 1.0 | 0.00 | 0.00 | 0.00 | 52 | 1016.3 |
| 20260504012506 | 52 | 284 | 0.0 | 0.0 | 0.00 | 0.00 | 0.00 | 53 | 1016.3 |
| 20260504012004 | 52 | 284 | 0.0 | 0.0 | 0.00 | 0.00 | 0.00 | 51 | 1016.1 |
| 20260504011500 | 52 | 284 | 0.0 | 0.0 | 0.00 | 0.00 | 0.00 | 50 | 1016.4 |
| 20260504010955 | 52 | 284 | 0.0 | 0.0 | 0.00 | 0.00 | 0.00 | 50 | 1016.3 |
| 20260504010452 | 52 | 284 | 0.0 | 0.0 | 0.00 | 0.00 | 0.00 | 50 | 1016.4 |
| 20260504005948 | 52 | 284 | 0.0 | 0.0 | 0.00 | 0.00 | 0.00 | 49 | 1016.4 |
| 20260504005445 | 52 | 284 | 0.0 | 0.0 | 0.00 | 0.00 | 0.00 | 49 | 1016.4 |
| 20260504004942 | 53 | 284 | 0.0 | 0.0 | 0.00 | 0.00 | 0.00 | 46 | 1016.3 |
| 20260504004440 | 53 | 284 | 0.0 | 0.0 | 0.00 | 0.00 | 0.00 | 46 | 1016.3 |
| 20260504003937 | 53 | 284 | 0.0 | 0.0 | 0.00 | 0.00 | 0.00 | 45 | 1016.1 |
| 20260504003433 | 53 | 284 | 0.0 | 0.0 | 0.00 | 0.00 | 0.00 | 45 | 1015.8 |
| 20260504002930 | 53 | 284 | 0.0 | 0.0 | 0.00 | 0.00 | 0.00 | 45 | 1016.1 |
| 20260504002427 | 53 | 284 | 0.0 | 0.0 | 0.00 | 0.00 | 0.00 | 47 | 1016.0 |
| 20260504001924 | 53 | 284 | 0.0 | 0.0 | 0.00 | 0.00 | 0.00 | 45 | 1016.0 |
| 20260504001422 | 54 | 284 | 0.0 | 0.0 | 0.00 | 0.00 | 0.00 | 44 | 1016.0 |
| 20260504000918 | 54 | 284 | 0.0 | 0.0 | 0.00 | 0.00 | 0.00 | 44 | 1016.1 |
| 20260504000416 | 55 | 284 | 0.0 | 0.0 | 0.00 | 0.00 | 0.00 | 44 | 1015.9 |
| 20260503235912 | 55 | 284 | 0.0 | 1.0 | 0.00 | 0.00 | 0.00 | 43 | 1016.1 |
| 20260503235410 | 55 | 284 | 0.0 | 2.0 | 0.00 | 0.00 | 0.00 | 41 | 1016.0 |
| 20260503234908 | 55 | 284 | 1.0 | 1.0 | 0.00 | 0.00 | 0.00 | 41 | 1016.4 |
| 20260503234405 | 56 | 284 | 1.0 | 2.0 | 0.00 | 0.00 | 0.00 | 40 | 1016.1 |
| 20260503233903 | 56 | 284 | 0.0 | 2.0 | 0.00 | 0.00 | 0.00 | 40 | 1016.4 |
| 20260503233359 | 56 | 284 | 1.0 | 2.0 | 0.00 | 0.00 | 0.00 | 40 | 1016.0 |
| 20260503232855 | 56 | 284 | 1.0 | 2.0 | 0.00 | 0.00 | 0.00 | 41 | 1016.4 |
| 20260503232353 | 56 | 285 | 1.0 | 2.0 | 0.00 | 0.00 | 0.00 | 42 | 1016.3 |
| 20260503231850 | 56 | 284 | 0.0 | 2.0 | 0.00 | 0.00 | 0.00 | 40 | 1016.3 |
| 20260503231347 | 56 | 284 | 1.0 | 3.0 | 0.00 | 0.00 | 0.00 | 39 | 1016.5 |
| 20260503230843 | 56 | 286 | 2.0 | 2.0 | 0.00 | 0.00 | 0.00 | 38 | 1016.6 |
| 20260503230340 | 56 | 264 | 1.0 | 2.0 | 0.00 | 0.00 | 0.00 | 40 | 1016.4 |
| 20260503225838 | 57 | 277 | 1.0 | 2.0 | 0.00 | 0.00 | 0.00 | 40 | 1016.4 |
| 20260503225333 | 57 | 277 | 1.0 | 3.0 | 0.00 | 0.00 | 0.00 | 37 | 1016.4 |
| 20260503224830 | 57 | 277 | 1.0 | 4.0 | 0.00 | 0.00 | 0.00 | 37 | 1016.5 |
| 20260503224327 | 58 | 269 | 7.0 | 9.0 | 0.00 | 0.00 | 0.00 | 36 | 1016.5 |
| 20260503223825 | 58 | 283 | 3.0 | 4.0 | 0.00 | 0.00 | 0.00 | 37 | 1016.5 |
| 20260503223323 | 58 | 259 | 1.0 | 3.0 | 0.00 | 0.00 | 0.00 | 36 | 1016.5 |
| 20260503222818 | 58 | 262 | 3.0 | 4.0 | 0.00 | 0.00 | 0.00 | 39 | 1016.6 |
| 20260503222317 | 58 | 275 | 2.0 | 4.0 | 0.00 | 0.00 | 0.00 | 37 | 1016.5 |
| 20260503221814 | 58 | 260 | 4.0 | 7.0 | 0.00 | 0.00 | 0.00 | 36 | 1016.5 |
| 20260503221313 | 58 | 255 | 3.0 | 6.0 | 0.00 | 0.00 | 0.00 | 38 | 1016.8 |
| 20260503220808 | 58 | 121 | 2.0 | 6.0 | 0.00 | 0.00 | 0.00 | 34 | 1016.4 |
| 20260503220306 | 58 | 234 | 4.0 | 6.0 | 0.00 | 0.00 | 0.00 | 35 | 1016.7 |
| 20260503215802 | 58 | 229 | 5.0 | 7.0 | 0.00 | 0.00 | 0.00 | 36 | 1016.7 |
| 20260503215259 | 58 | 209 | 4.0 | 9.0 | 0.00 | 0.00 | 0.00 | 34 | 1016.6 |
| 20260503214757 | 59 | 236 | 3.0 | 8.0 | 0.00 | 0.00 | 0.00 | 35 | 1016.6 |
| 20260503214254 | 60 | 258 | 4.0 | 7.0 | 0.00 | 0.00 | 0.00 | 36 | 1016.6 |
| 20260503213752 | 60 | 244 | 1.0 | 3.0 | 0.00 | 0.00 | 0.00 | 33 | 1016.6 |
| 20260503213249 | 60 | 237 | 1.0 | 6.0 | 0.00 | 0.00 | 0.00 | 35 | 1016.6 |
| 20260503212746 | 61 | 243 | 2.0 | 6.0 | 0.00 | 0.00 | 0.00 | 35 | 1016.5 |
| 20260503212243 | 61 | 222 | 2.0 | 2.0 | 0.00 | 0.00 | 0.00 | 31 | 1016.4 |
| 20260503211741 | 60 | 222 | 2.0 | 4.0 | 0.00 | 0.00 | 0.00 | 32 | 1016.5 |
| 20260503211237 | 60 | 259 | 3.0 | 7.0 | 0.00 | 0.00 | 0.00 | 37 | 1016.6 |
| 20260503210732 | 59 | 212 | 4.0 | 9.0 | 0.00 | 0.00 | 0.00 | 37 | 1016.7 |
| 20260503210230 | 59 | 268 | 6.0 | 10.0 | 0.00 | 0.00 | 0.00 | 36 | 1016.6 |
| 20260503205725 | 59 | 182 | 6.0 | 9.0 | 0.00 | 0.00 | 0.00 | 35 | 1016.5 |
| 20260503205222 | 59 | 162 | 5.0 | 11.0 | 0.00 | 0.00 | 0.00 | 34 | 1016.7 |
| 20260503204718 | 60 | 214 | 2.0 | 8.0 | 0.00 | 0.00 | 0.00 | 33 | 1016.5 |
| 20260503204216 | 59 | 203 | 1.0 | 2.0 | 0.00 | 0.00 | 0.00 | 34 | 1016.8 |
| 20260503203713 | 60 | 225 | 2.0 | 4.0 | 0.00 | 0.00 | 0.00 | 36 | 1017.1 |
| 20260503203211 | 60 | 236 | 4.0 | 8.0 | 0.00 | 0.00 | 0.00 | 35 | 1017.0 |
| 20260503202708 | 59 | 239 | 4.0 | 11.0 | 0.00 | 0.00 | 0.00 | 37 | 1017.1 |
| 20260503202206 | 60 | 222 | 4.0 | 11.0 | 0.00 | 0.00 | 0.00 | 37 | 1017.3 |
| 20260503201703 | 58 | 234 | 5.0 | 6.0 | 0.00 | 0.00 | 0.00 | 39 | 1017.2 |
| 20260503201200 | 59 | 288 | 7.0 | 11.0 | 0.00 | 0.00 | 0.00 | 36 | 1017.5 |
| 20260503200656 | 59 | 250 | 2.0 | 6.0 | 0.00 | 0.00 | 0.00 | 35 | 1017.3 |
| 20260503200153 | 59 | 209 | 2.0 | 7.0 | 0.00 | 0.00 | 0.00 | 38 | 1017.2 |
| 20260503195650 | 59 | 249 | 1.0 | 6.0 | 0.00 | 0.00 | 0.00 | 34 | 1017.5 |
| 20260503195147 | 59 | 227 | 3.0 | 7.0 | 0.00 | 0.00 | 0.00 | 38 | 1017.8 |
| 20260503194644 | 59 | 239 | 6.0 | 10.0 | 0.00 | 0.00 | 0.00 | 38 | 1017.8 |
| 20260503194139 | 59 | 273 | 2.0 | 7.0 | 0.00 | 0.00 | 0.00 | 36 | 1017.7 |
| 20260503193637 | 60 | 263 | 3.0 | 4.0 | 0.00 | 0.00 | 0.00 | 35 | 1017.8 |
| 20260503193132 | 59 | 228 | 2.0 | 4.0 | 0.00 | 0.00 | 0.00 | 40 | 1018.2 |
| 20260503192628 | 58 | 259 | 2.0 | 4.0 | 0.00 | 0.00 | 0.00 | 35 | 1018.2 |
| 20260503192124 | 56 | 263 | 2.0 | 3.0 | 0.00 | 0.00 | 0.00 | 38 | 1018.3 |
| 20260503191621 | 57 | 269 | 3.0 | 10.0 | 0.00 | 0.00 | 0.00 | 36 | 1018.3 |
| 20260503191118 | 58 | 273 | 5.0 | 9.0 | 0.00 | 0.00 | 0.00 | 39 | 1018.4 |
| 20260503190615 | 58 | 261 | 6.0 | 8.0 | 0.00 | 0.00 | 0.00 | 36 | 1018.3 |
| 20260503190112 | 58 | 277 | 1.0 | 7.0 | 0.00 | 0.00 | 0.00 | 37 | 1018.3 |
| 20260503185608 | 59 | 227 | 1.0 | 3.0 | 0.00 | 0.00 | 0.00 | 35 | 1018.6 |
| 20260503185108 | 57 | 232 | 3.0 | 6.0 | 0.00 | 0.00 | 0.00 | 40 | 1018.5 |
| 20260503184604 | 57 | 269 | 2.0 | 4.0 | 0.00 | 0.00 | 0.00 | 40 | 1018.6 |
| 20260503184100 | 57 | 217 | 2.0 | 3.0 | 0.00 | 0.00 | 0.00 | 38 | 1018.7 |
| 20260503183557 | 59 | 262 | 2.0 | 6.0 | 0.00 | 0.00 | 0.00 | 37 | 1018.8 |
| 20260503183054 | 59 | 309 | 1.0 | 4.0 | 0.00 | 0.00 | 0.00 | 38 | 1018.7 |
| 20260503182553 | 57 | 271 | 3.0 | 6.0 | 0.00 | 0.00 | 0.00 | 42 | 1018.9 |
| 20260503182050 | 56 | 204 | 2.0 | 4.0 | 0.00 | 0.00 | 0.00 | 38 | 1018.8 |
| 20260503181547 | 56 | 204 | 1.0 | 3.0 | 0.00 | 0.00 | 0.00 | 36 | 1018.7 |
| 20260503181044 | 57 | 243 | 4.0 | 4.0 | 0.00 | 0.00 | 0.00 | 42 | 1018.8 |
| 20260503180541 | 56 | 262 | 2.0 | 4.0 | 0.00 | 0.00 | 0.00 | 39 | 1019.1 |
| 20260503180038 | 55 | 258 | 3.0 | 6.0 | 0.00 | 0.00 | 0.00 | 40 | 1019.4 |
| 20260503175535 | 57 | 83 | 3.0 | 8.0 | 0.00 | 0.00 | 0.00 | 35 | 1018.9 |
| 20260503175032 | 57 | 170 | 4.0 | 7.0 | 0.00 | 0.00 | 0.00 | 35 | 1019.4 |
| 20260503174530 | 56 | 286 | 7.0 | 9.0 | 0.00 | 0.00 | 0.00 | 39 | 1019.1 |
| 20260503174026 | 56 | 259 | 5.0 | 6.0 | 0.00 | 0.00 | 0.00 | 42 | 1019.1 |
| 20260503173521 | 56 | 246 | 4.0 | 9.0 | 0.00 | 0.00 | 0.00 | 39 | 1019.4 |
| 20260503173017 | 55 | 166 | 8.0 | 13.0 | 0.00 | 0.00 | 0.00 | 38 | 1019.4 |
| 20260503172515 | 55 | 189 | 5.0 | 7.0 | 0.00 | 0.00 | 0.00 | 41 | 1019.6 |
| 20260503172012 | 55 | 204 | 4.0 | 8.0 | 0.00 | 0.00 | 0.00 | 40 | 1019.7 |
| 20260503171508 | 53 | 312 | 7.0 | 9.0 | 0.00 | 0.00 | 0.00 | 43 | 1019.6 |
| 20260503171006 | 54 | 280 | 8.0 | 11.0 | 0.00 | 0.00 | 0.00 | 42 | 1019.8 |
| 20260503170502 | 54 | 285 | 4.0 | 6.0 | 0.00 | 0.00 | 0.00 | 42 | 1019.9 |
| 20260503150854 | 50 | 169 | 3.0 | 4.0 | 0.00 | 0.00 | 0.00 | 51 | 1021.1 |
| 20260503150350 | 50 | 258 | 2.0 | 7.0 | 0.00 | 0.00 | 0.00 | 51 | 1021.0 |
| 20260503140315 | 47 | 227 | 3.0 | 4.0 | 0.00 | 0.00 | 0.00 | 63 | 1021.4 |
| 20260503131244 | 43 | 197 | 4.0 | 7.0 | 0.00 | 0.00 | 0.00 | 78 | 1021.0 |
| 20260503130742 | 42 | 175 | 4.0 | 6.0 | 0.00 | 0.00 | 0.00 | 78 | 1021.0 |
| 20260503130239 | 42 | 216 | 3.0 | 6.0 | 0.00 | 0.00 | 0.00 | 79 | 1021.1 |
| 20260503120205 | 36 | 292 | 1.0 | 2.0 | 0.00 | 0.00 | 0.00 | 97 | 1020.6 |
| 20260503110632 | 32 | 293 | 1.0 | 1.0 | 0.00 | 0.00 | 0.00 | 98 | 1019.9 |
| 20260503110130 | 31 | 293 | 0.0 | 1.0 | 0.00 | 0.00 | 0.00 | 98 | 1020.1 |
| 20260503081446 | 31 | 292 | 0.0 | 0.0 | 0.00 | 0.00 | 0.00 | 95 | 1018.8 |
| 20260503080943 | 31 | 292 | 0.0 | 0.0 | 0.00 | 0.00 | 0.00 | 95 | 1018.8 |
| 20260503080439 | 31 | 292 | 0.0 | 0.0 | 0.00 | 0.00 | 0.00 | 95 | 1018.7 |
| 20260503072915 | 32 | 292 | 0.0 | 0.0 | 0.00 | 0.00 | 0.00 | 94 | 1018.3 |
| 20260503072413 | 32 | 292 | 0.0 | 0.0 | 0.00 | 0.00 | 0.00 | 94 | 1018.3 |
| 20260503071909 | 33 | 292 | 0.0 | 0.0 | 0.00 | 0.00 | 0.00 | 94 | 1018.4 |
| 20260503071407 | 33 | 292 | 0.0 | 0.0 | 0.00 | 0.00 | 0.00 | 93 | 1018.4 |
| 20260503070902 | 33 | 292 | 0.0 | 0.0 | 0.00 | 0.00 | 0.00 | 93 | 1018.2 |
| 20260503070400 | 33 | 292 | 1.0 | 1.0 | 0.00 | 0.00 | 0.00 | 93 | 1017.9 |
| 20260503060326 | 35 | 292 | 0.0 | 0.0 | 0.00 | 0.00 | 0.00 | 88 | 1018.1 |
| 20260503054814 | 36 | 292 | 0.0 | 0.0 | 0.00 | 0.00 | 0.00 | 85 | 1018.2 |
| 20260503054309 | 36 | 292 | 0.0 | 0.0 | 0.00 | 0.00 | 0.00 | 83 | 1018.2 |
| 20260503053808 | 37 | 292 | 0.0 | 1.0 | 0.00 | 0.00 | 0.00 | 82 | 1018.2 |
| 20260503053306 | 38 | 292 | 1.0 | 2.0 | 0.00 | 0.00 | 0.00 | 80 | 1018.0 |
| 20260503052802 | 38 | 292 | 0.0 | 2.0 | 0.00 | 0.00 | 0.00 | 79 | 1018.3 |
| 20260503052259 | 38 | 292 | 0.0 | 1.0 | 0.00 | 0.00 | 0.00 | 80 | 1018.0 |
| 20260503051754 | 37 | 292 | 1.0 | 1.0 | 0.00 | 0.00 | 0.00 | 81 | 1018.2 |
| 20260503051252 | 38 | 292 | 1.0 | 2.0 | 0.00 | 0.00 | 0.00 | 80 | 1018.1 |
| 20260503050748 | 38 | 292 | 0.0 | 1.0 | 0.00 | 0.00 | 0.00 | 80 | 1018.0 |
| 20260503050244 | 38 | 292 | 0.0 | 1.0 | 0.00 | 0.00 | 0.00 | 79 | 1018.2 |
| 20260503045742 | 38 | 292 | 0.0 | 0.0 | 0.00 | 0.00 | 0.00 | 79 | 1018.0 |
| 20260503045234 | 38 | 292 | 0.0 | 0.0 | 0.00 | 0.00 | 0.00 | 78 | 1018.1 |
| 20260503044729 | 39 | 292 | 0.0 | 2.0 | 0.00 | 0.00 | 0.00 | 77 | 1018.0 |
| 20260503044227 | 39 | 292 | 1.0 | 2.0 | 0.00 | 0.00 | 0.00 | 75 | 1017.9 |
| 20260503043724 | 39 | 292 | 0.0 | 2.0 | 0.00 | 0.00 | 0.00 | 75 | 1018.1 |
| 20260503043221 | 39 | 287 | 0.0 | 1.0 | 0.00 | 0.00 | 0.00 | 74 | 1018.0 |
| 20260503042717 | 40 | 287 | 1.0 | 2.0 | 0.00 | 0.00 | 0.00 | 74 | 1018.0 |
| 20260503042214 | 40 | 294 | 1.0 | 4.0 | 0.00 | 0.00 | 0.00 | 72 | 1018.0 |
| 20260503041710 | 40 | 295 | 0.0 | 1.0 | 0.00 | 0.00 | 0.00 | 72 | 1018.0 |
| 20260503041208 | 40 | 294 | 1.0 | 3.0 | 0.00 | 0.00 | 0.00 | 72 | 1017.8 |
| 20260503040705 | 40 | 350 | 0.0 | 1.0 | 0.00 | 0.00 | 0.00 | 71 | 1018.0 |
| 20260503040202 | 40 | 349 | 0.0 | 1.0 | 0.00 | 0.00 | 0.00 | 71 | 1017.9 |
| 20260503035659 | 41 | 350 | 2.0 | 2.0 | 0.00 | 0.00 | 0.00 | 71 | 1018.1 |
| 20260503035157 | 41 | 335 | 0.0 | 1.0 | 0.00 | 0.00 | 0.00 | 70 | 1018.0 |
| 20260503034654 | 41 | 321 | 0.0 | 1.0 | 0.00 | 0.00 | 0.00 | 70 | 1017.9 |
| 20260503034151 | 41 | 321 | 2.0 | 6.0 | 0.00 | 0.00 | 0.00 | 69 | 1017.9 |
| 20260503033648 | 41 | 331 | 4.0 | 6.0 | 0.00 | 0.00 | 0.00 | 69 | 1017.8 |
| 20260503033145 | 42 | 323 | 2.0 | 4.0 | 0.00 | 0.00 | 0.00 | 69 | 1017.7 |
| 20260503032643 | 42 | 354 | 1.0 | 3.0 | 0.00 | 0.00 | 0.00 | 68 | 1017.8 |
| 20260503032142 | 42 | 40 | 0.0 | 2.0 | 0.00 | 0.00 | 0.00 | 67 | 1017.8 |
| 20260503031639 | 42 | 320 | 3.0 | 6.0 | 0.00 | 0.00 | 0.00 | 67 | 1017.9 |
| 20260503031137 | 43 | 330 | 2.0 | 2.0 | 0.00 | 0.00 | 0.00 | 67 | 1017.9 |
| 20260503030632 | 42 | 321 | 2.0 | 9.0 | 0.00 | 0.00 | 0.00 | 66 | 1017.8 |
| 20260503030129 | 43 | 343 | 1.0 | 1.0 | 0.00 | 0.00 | 0.00 | 66 | 1017.7 |
| 20260503025626 | 43 | 329 | 7.0 | 8.0 | 0.00 | 0.00 | 0.00 | 65 | 1017.9 |
| 20260503025124 | 43 | 309 | 3.0 | 6.0 | 0.00 | 0.00 | 0.00 | 65 | 1017.8 |
| 20260503024620 | 43 | 279 | 2.0 | 3.0 | 0.00 | 0.00 | 0.00 | 65 | 1017.8 |
| 20260503024117 | 43 | 329 | 4.0 | 6.0 | 0.00 | 0.00 | 0.00 | 64 | 1017.6 |
| 20260503023614 | 43 | 314 | 4.0 | 10.0 | 0.00 | 0.00 | 0.00 | 63 | 1017.9 |
| 20260503023112 | 44 | 337 | 3.0 | 6.0 | 0.00 | 0.00 | 0.00 | 62 | 1017.9 |
| 20260503022607 | 44 | 352 | 4.0 | 8.0 | 0.00 | 0.00 | 0.00 | 61 | 1017.7 |
| 20260503022102 | 44 | 301 | 5.0 | 11.0 | 0.00 | 0.00 | 0.00 | 60 | 1017.7 |
| 20260503021600 | 45 | 318 | 5.0 | 10.0 | 0.00 | 0.00 | 0.00 | 59 | 1017.6 |